Regional Weather Roundup
Issued by NWS Grand Forks, ND

Home | Current Version | Previous Version | Graphics & Text | Print | Product List | Glossary On
Versions: 1 2 3 4 5 6 7 8 9 10 11 12 13 14 15 16 17 18 19 20 21 22 23 24 25 26 27 28 29 30 31 32 33 34 35 36 37 38 39 40 41 42 43 44 45 46 47 48 49 50
000
ASUS43 KFGF 271531
RWRFGF
PRAIRIE TO PINES  WEATHER ROUNDUP
NATIONAL WEATHER SERVICE EASTERN NORTH DAKOTA/GRAND FORKS ND
1000 AM CDT TUE JUN 27 2017

 **SATELLITE DATA USED TO AUGMENT SKY COVER AT AUTOMATED STATIONS**
 *****  WEATHER ACROSS EASTERN NORTH DAKOTA  *****

CITY           SKY/WX    TMP DP  RH WIND       PRES   REMARKS
GRAND FORKS    PTSUNNY   66  47  50 S16G24    29.86F
GRAND FRKS AFB FAIR      69  45  41 S20       29.85F
DEVILS LAKE    FAIR      68  46  45 S15       29.80F
FARGO          FAIR      69  45  41 S13       29.91F
WAHPETON ARPT  FAIR      68  39  34 S18G25    29.94F
$$

 ***** WEATHER ACROSS CENTRAL AND WESTERN NORTH DAKOTA  *****

CITY           SKY/WX    TMP DP  RH WIND       PRES   REMARKS
BISMARCK       FAIR      69  49  48 S24G31    29.74F
MINOT          FAIR      68  44  42 S20G28    29.65F
JAMESTOWN      FAIR      62  44  51 S20G26    29.83F
MINOT AFB      FAIR      69  44  41 S24       29.64F
GARRISON         N/A     62  46  55 S16       29.71F
WILLISTON      FAIR      72  44  36 S12G22    29.61F
DICKINSON      FAIR      69  44  40 S17G26    29.66F
HETTINGER      FAIR      71  48  43 S17       29.71F
$$

 *****  OTHER AIRPORT OBSERVATIONS IN OUR AREA  *****

CITY           SKY/WX    TMP DP  RH WIND       PRES   REMARKS
WALHALLA       NOT AVBL
GRAFTON AIRPOR FAIR      68  46  45 S17       29.84F
VALLEY CITY AR FAIR      66  45  45 S24       29.87F
CANDO          NOT AVBL
CAVALIER APRT  FAIR      68  45  42 S16       29.80F
GWINNER        CLOUDY    68  45  42 S24       29.89F
SHEYENNE NWR     N/A     69  49  48 S14       29.95
ROLLA            N/A     68  45  42 S25G38    29.74F
 ***** THE ABOVE OBSERVATIONS ARE NON NWS ARE NOT QUALITY
       CONTROLLED AND MAY MIS-REPORT RAIN FOR SNOW...
$$

  *****  WEATHER ACROSS NORTHERN MINNESOTA  *****

CITY           SKY/WX    TMP DP  RH WIND       PRES   REMARKS
FLAG ISLAND    FAIR      66  45  45 SW15      29.87F HAZE
WARROAD        FAIR      66  50  55 S12       29.90F
ROSEAU         FAIR      66  48  52 SW15      29.88F
HALLOCK        FAIR      68  46  45 S17       29.83F
THF RVR FALLS  FAIR      65  44  46 S18       29.91F
BAUDETTE       FAIR      65  47  52 SW8       29.93F
WASKISH        FAIR      66  48  52 SW12      29.95F
CROOKSTON      FAIR      66  46  48 S13G20    29.89F
STEPHEN NDAWN    N/A     66  45  45 S14         N/A
GREENBUSH NDAW   N/A     66  45  45 S16         N/A
$$
  *****  WEATHER ACROSS CENTRAL AND WEST MINNESOTA  *****

CITY           SKY/WX    TMP DP  RH WIND       PRES   REMARKS
FOSSTON        FAIR      64  43  45 S22       29.93F
BEMIDJI        FAIR      67  43  42 SW13G20   29.96F
PARK RAPIDS    FAIR      68  41  37 SW14      29.99F
ELBOW LAKE     FAIR      67  45  44 S17G23    29.98F
WADENA         FAIR      66  45  45 S13G21    29.99F
DETROIT LAKES  FAIR      66  43  42 S13       29.97F
MOORHEAD       FAIR      70  41  35 S17       29.92F
FERGUS FALLS   FAIR      68  45  42 S17G23    29.94F
MORRIS MN      FAIR      70  43  37 S18       29.98F
STAPLES        FAIR      66  39  37 S15       30.01F
$$
  *****  WEATHER ELSEWHERE ACROSS MINNESOTA  *****

CITY           SKY/WX    TMP DP  RH WIND       PRES   REMARKS
DULUTH         FAIR      67  47  48 W14G21    30.03F
INTRNTL FALLS  FAIR      66  47  50 W8        29.95F
ELY            FAIR      64  45  48 W9        29.99F
CLOQUET        FAIR      68  37  32 W14G21    30.03F
WHEATON        FAIR      68  43  40 S15G21    29.97F
BRAINERD       FAIR      66  45  46 S10       30.03F
HIBBING        FAIR      65  45  48 W9        30.01F
ALEXANDRIA     FAIR      68  44  42 S15       30.02F
SAINT CLOUD    FAIR      69  43  38 SW12      30.05F
MINNEAPOLIS    FAIR      68  43  40 SW9       30.07F
$$

  *****  WEATHER ACROSS SOUTH DAKOTA  *****

CITY           SKY/WX    TMP DP  RH WIND       PRES   REMARKS
SIOUX FALLS    PTSUNNY   67  51  56 S15G23    30.02F
BROOKINGS      FAIR      67  47  48 S18G24    30.01F
WATERTOWN      FAIR      63  47  55 S15       29.97F
HURON          FAIR      66  48  52 S20       29.95F
SISSETON         N/A     69  45  41 S20G26    29.94F
ABERDEEN       FAIR      67  47  48 S22G32    29.90F
MITCHELL       FAIR      70  51  51 S21G32    29.97F
PIERRE         FAIR      71  53  52 S20G33    29.81F
MOBRIDGE       FAIR      71  49  45 S24G33    29.77F
RAPID CITY     FAIR      72  56  57 S35G45    29.71F
$$

  *****  SOME WEATHER IN NEARBY STATES *****

CITY           SKY/WX    TMP DP  RH WIND       PRES   REMARKS
GLASGOW MT     FAIR      75  43  31 VRB5      29.59S
GREAT FALLS MT FAIR      71  49  45 SW14G24   29.76S
CHEYENNE WY    FAIR      72  50  45 SW5       29.99F
SCOTTSBLUFF NE FAIR      73  57  57 S14       29.86F
OMAHA NE       FAIR      69  57  65 SE10      30.09F
DES MOINES IA  FAIR      69  48  47 SE9       30.13F
DAVENPORT IA   FAIR      67  48  50 VRB5      30.16F
CHICAGO IL     FAIR      69  45  41 NW8       30.13S
EAU CLAIRE WI  FAIR      67  51  56 W7        30.08F
LA CROSSE WI   FAIR      71  51  49 VRB5      30.11F
$$

  *****  SOME NATIONAL WEATHER *****

CITY           SKY/WX    TMP DP  RH WIND       PRES   REMARKS
LA GUARDIA NY  CLOUDY    70  61  73 NE7       29.99F
RALEIGH NC     FAIR      76  54  46 NE8       30.08S
ATLANTA GA     FAIR      79  57  46 N16       30.11S
NEW ORLEANS LA PTSUNNY   81  71  71 E6        30.04S
OKLAHOMA CITY  PTSUNNY   78  67  68 S10       30.06S
ALBUQUERQUE NM FAIR      70  49  47 SW3       30.22R
SALT LAKE CITY FAIR      76  51  41 SE7       29.93F
LOS ANGELES CA FAIR      71  60  68 SE5       29.88R
BOISE ID       FAIR      71  50  47 VRB5      29.94R
SEATTLE WA     CLOUDY    55  49  80 SW8       30.06S
$$

*** WEATHER ACROSS MANITOBA...SASKATCHEWAN AND ONTARIO ***
                ***ONTARIO***

CITY           SKY/WX    TMP DP  RH WIND       PRES   REMARKS
GERALDTON      PTSUNNY   61  52  72 SW12      29.87F
THUNDER BAY    MOSUNNY   66  54  63 SW8       29.94F
SIOUX LOOKOUT  MOSUNNY   68  46  45 W9G18     29.89F
TORONTO        PTSUNNY   63  48  59 W16       29.92F
BIG TROUT LK   PTSUNNY   57  52  82 W9        29.67F
PICKLE LAKE    PTSUNNY   68  45  42 W17       29.79F
DRYDEN         SUNNY     66  46  48 SW14G26   29.90F
KENORA         PTSUNNY   66  45  45 SW12      29.89F
$$
                *** MANITOBA***

CITY           SKY/WX    TMP DP  RH WIND       PRES   REMARKS
BRANDON        PTSUNNY   72  46  40 S15       29.68F
DAUPHIN        SUNNY     70  48  46 SW20G28   29.62F
ISLAND LAKE    MOSUNNY   64  48  55 NW7       29.71F
PILOT MOUND      N/A     64  48  55 S18         N/A
THE PAS        PTSUNNY   70  50  49 SE14G22   29.62F
THOMPSON       PTSUNNY   52  43  71 NE15G24   29.79F
WINNIPEG       PTSUNNY   64  50  59 S15       29.78F
LYNN LAKE      SUNNY     55  45  67 E15G23    29.77S
CHURCHILL      MOSUNNY   43  41  93 E14       29.96R
GILLAM         CLOUDY    46  43  87 NE15G23   29.82R
$$
                ***SASKATCHEWAN***

CITY           SKY/WX    TMP DP  RH WIND       PRES   REMARKS
ESTEVAN        MOSUNNY   70  48  46 S10G17    29.60F
KINDERSLEY     PTSUNNY   63  55  77 NW24G33   29.54R
LLOYDMINSTER   PTSUNNY   59  54  82 NW20G32   29.55R
PRINCE ALBERT  PTSUNNY   66  52  59 E14       29.45F
REGINA         PTSUNNY   72  50  46 S14G22    29.53F
YORKTON        SUNNY     68  50  52 S13G18    29.57F
N. BATTLEFORD  PTSUNNY   63  52  67 NW21      29.47R
LA RONGE       PTSUNNY   68  46  45 E17G24    29.53S
SASKATOON      PTSUNNY   72  55  56 SW14      29.43S
SWIFT CURRENT  SUNNY     70  52  52 W23G30    29.55R
$$
NOTE: THESE ARE AUTOMATED STATIONS WITH LIMITED QUALITY CONTROL
      "FAIR" INDICATES FEW OR NO CLOUDS BELOW 12,000 FEET WITH NO
      SIGNIFICANT WEATHER AND/OR OBSTRUCTIONS TO VISIBILITY.
      SKY/WX - SKY CONDITION AND SIGNIFICANT WEATHER.
      TMP - AIR TEMPERATURE.    DP   - DEWPOINT TEMPERATURE.
      RH  - RELATIVE HUMIDITY.  PRES - PRESSURE.
      HX  - HEAT INDEX.         WCI  - WIND CHILL INDEX.
$




USA.gov is the U.S. government's official web portal to all federal, state and local government web resources and services.